| time (UTC) | temp C | wind direction | speed KPH | gust KPH | rain 1hr cm | rain 24hr cm | rain mn cm | humidity % | barometer mb |
| 20260505102026 | 13 | 0 | 0.0 | 3.2 | 0.48 | 0.51 | 0.51 | 93 | 1010.0 |
| 20260505101546 | 13 | 0 | 0.0 | 6.4 | 0.51 | 0.51 | 0.51 | 93 | 1010.1 |
| 20260505101027 | 13 | 0 | 1.6 | 6.4 | 0.46 | 0.46 | 0.46 | 92 | 1010.2 |
| 20260505100529 | 14 | 0 | 0.0 | 9.7 | 0.36 | 0.36 | 0.36 | 92 | 1010.3 |
| 20260505100039 | 14 | 0 | 0.0 | 9.7 | 0.28 | 0.28 | 0.28 | 91 | 1010.6 |
| 20260505095525 | 14 | 263 | 0.0 | 6.4 | 0.20 | 0.20 | 0.20 | 90 | 1010.5 |
| 20260505095026 | 14 | 0 | 0.0 | 6.4 | 0.15 | 0.15 | 0.15 | 90 | 1010.5 |
| 20260505094538 | 15 | 0 | 0.0 | 6.4 | 0.13 | 0.13 | 0.13 | 89 | 1010.6 |
| 20260505094026 | 15 | 0 | 1.6 | 6.4 | 0.10 | 0.10 | 0.10 | 88 | 1010.7 |
| 20260505093528 | 15 | 0 | 0.0 | 4.8 | 0.08 | 0.08 | 0.08 | 86 | 1010.5 |
| 20260505093042 | 15 | 0 | 0.0 | 6.4 | 0.08 | 0.08 | 0.08 | 84 | 1010.2 |
| 20260505092526 | 16 | 243 | 0.0 | 6.4 | 0.05 | 0.05 | 0.05 | 83 | 1010.1 |
| 20260505092026 | 16 | 0 | 0.0 | 4.8 | 0.03 | 0.03 | 0.03 | 80 | 1010.0 |
| 20260505091541 | 17 | 0 | 0.0 | 4.8 | 0.00 | 0.00 | 0.00 | 76 | 1009.4 |
| 20260505091027 | 17 | 0 | 0.0 | 4.8 | 0.00 | 0.00 | 0.00 | 72 | 1009.4 |
| 20260505090528 | 17 | 0 | 0.0 | 6.4 | 0.00 | 0.00 | 0.00 | 70 | 1009.5 |
| 20260505090054 | 17 | 0 | 1.6 | 6.4 | 0.00 | 0.00 | 0.00 | 67 | 1009.1 |
| 20260505085525 | 17 | 193 | 1.6 | 8.0 | 0.00 | 0.00 | 0.00 | 66 | 1008.9 |
| 20260505085024 | 17 | 172 | 1.6 | 8.0 | 0.00 | 0.00 | 0.00 | 66 | 1008.8 |
| 20260505084548 | 17 | 213 | 3.2 | 8.0 | 0.00 | 0.00 | 0.00 | 67 | 1008.7 |
| 20260505084024 | 17 | 187 | 1.6 | 9.7 | 0.00 | 0.00 | 0.00 | 66 | 1008.7 |
| 20260505083524 | 17 | 180 | 3.2 | 9.7 | 0.00 | 0.00 | 0.00 | 66 | 1008.7 |
| 20260505083038 | 17 | 189 | 1.6 | 8.0 | 0.00 | 0.00 | 0.00 | 66 | 1008.6 |
| 20260505082524 | 17 | 176 | 3.2 | 11.3 | 0.00 | 0.00 | 0.00 | 67 | 1008.5 |
| 20260505082024 | 17 | 175 | 3.2 | 11.3 | 0.00 | 0.00 | 0.00 | 66 | 1008.1 |
| 20260505081543 | 17 | 182 | 3.2 | 9.7 | 0.00 | 0.00 | 0.00 | 66 | 1008.1 |
| 20260505081029 | 17 | 206 | 1.6 | 9.7 | 0.00 | 0.00 | 0.00 | 67 | 1007.9 |
| 20260505080527 | 17 | 159 | 0.0 | 6.4 | 0.00 | 0.00 | 0.00 | 67 | 1007.9 |
| 20260505080042 | 17 | 192 | 1.6 | 4.8 | 0.00 | 0.00 | 0.00 | 66 | 1007.9 |
| 20260505075527 | 18 | 196 | 0.0 | 4.8 | 0.00 | 0.00 | 0.00 | 65 | 1008.0 |
| 20260505075026 | 18 | 175 | 1.6 | 8.0 | 0.00 | 0.00 | 0.00 | 65 | 1008.2 |
| 20260505074539 | 18 | 163 | 1.6 | 11.3 | 0.00 | 0.00 | 0.00 | 64 | 1008.1 |
| 20260505074025 | 18 | 188 | 3.2 | 11.3 | 0.00 | 0.00 | 0.00 | 64 | 1008.2 |
| 20260505073525 | 18 | 238 | 3.2 | 11.3 | 0.00 | 0.00 | 0.00 | 64 | 1008.1 |
| 20260505073041 | 18 | 175 | 1.6 | 9.7 | 0.00 | 0.00 | 0.00 | 64 | 1007.9 |
| 20260505072523 | 18 | 187 | 4.8 | 11.3 | 0.00 | 0.00 | 0.00 | 63 | 1007.8 |
| 20260505072024 | 18 | 184 | 4.8 | 17.7 | 0.00 | 0.00 | 0.00 | 64 | 1007.7 |
| 20260505071537 | 18 | 190 | 4.8 | 17.7 | 0.00 | 0.00 | 0.00 | 63 | 1007.5 |
| 20260505071025 | 18 | 0 | 4.8 | 11.3 | 0.00 | 0.00 | 0.00 | 63 | 1007.6 |
| 20260505070525 | 18 | 203 | 3.2 | 9.7 | 0.00 | 0.00 | 0.00 | 64 | 1007.6 |
| 20260505070043 | 18 | 186 | 4.8 | 11.3 | 0.00 | 0.00 | 0.00 | 63 | 1007.6 |
| 20260505065526 | 18 | 167 | 3.2 | 14.5 | 0.00 | 0.00 | 0.00 | 64 | 1007.7 |
| 20260505065022 | 18 | 210 | 6.4 | 17.7 | 0.00 | 0.00 | 0.00 | 63 | 1007.7 |
| 20260505064541 | 18 | 188 | 6.4 | 17.7 | 0.00 | 0.00 | 0.00 | 63 | 1007.6 |
| 20260505064024 | 18 | 234 | 4.8 | 12.9 | 0.00 | 0.00 | 0.00 | 64 | 1007.6 |
| 20260505063526 | 18 | 178 | 4.8 | 16.1 | 0.00 | 0.00 | 0.00 | 62 | 1007.6 |
| 20260505063040 | 18 | 191 | 6.4 | 20.9 | 0.00 | 0.00 | 0.00 | 63 | 1007.6 |
| 20260505062528 | 18 | 186 | 4.8 | 20.9 | 0.00 | 0.00 | 0.00 | 63 | 1007.6 |
| 20260505062024 | 18 | 184 | 4.8 | 14.5 | 0.00 | 0.00 | 0.00 | 64 | 1007.6 |
| 20260505061540 | 18 | 228 | 3.2 | 19.3 | 0.00 | 0.00 | 0.00 | 63 | 1007.6 |
| 20260505061025 | 18 | 180 | 6.4 | 19.3 | 0.00 | 0.00 | 0.00 | 62 | 1007.7 |
| 20260505060524 | 19 | 186 | 4.8 | 20.9 | 0.00 | 0.00 | 0.00 | 62 | 1007.6 |
| 20260505060040 | 19 | 221 | 6.4 | 22.5 | 0.00 | 0.00 | 0.00 | 62 | 1007.5 |
| 20260505055524 | 19 | 178 | 8.0 | 22.5 | 0.00 | 0.00 | 0.00 | 62 | 1007.5 |
| 20260505055023 | 19 | 175 | 4.8 | 14.5 | 0.00 | 0.00 | 0.00 | 62 | 1007.3 |
| 20260505054541 | 19 | 171 | 6.4 | 16.1 | 0.00 | 0.00 | 0.00 | 62 | 1007.2 |
| 20260505054026 | 19 | 177 | 4.8 | 24.1 | 0.00 | 0.00 | 0.00 | 63 | 1007.1 |
| 20260505053522 | 19 | 189 | 6.4 | 24.1 | 0.00 | 0.00 | 0.00 | 63 | 1007.0 |
| 20260505053045 | 19 | 161 | 4.8 | 17.7 | 0.00 | 0.00 | 0.00 | 62 | 1007.1 |
| 20260505052523 | 19 | 188 | 6.4 | 17.7 | 0.00 | 0.00 | 0.00 | 62 | 1006.9 |
| 20260505052023 | 19 | 229 | 6.4 | 14.5 | 0.00 | 0.00 | 0.00 | 61 | 1006.9 |
| 20260505051538 | 20 | 200 | 4.8 | 16.1 | 0.00 | 0.00 | 0.00 | 61 | 1007.0 |
| 20260505051022 | 20 | 189 | 6.4 | 16.1 | 0.00 | 0.00 | 0.00 | 60 | 1006.8 |
| 20260505050527 | 20 | 179 | 6.4 | 17.7 | 0.00 | 0.00 | 0.00 | 60 | 1007.0 |
| 20260505041537 | 19 | 217 | 6.4 | 17.7 | 0.00 | 0.00 | 0.00 | 63 | 1007.6 |
| 20260505041025 | 20 | 210 | 3.2 | 12.9 | 0.00 | 0.00 | 0.00 | 64 | 1007.6 |
| 20260505040524 | 20 | 190 | 3.2 | 12.9 | 0.00 | 0.00 | 0.00 | 62 | 1007.6 |
| 20260505040042 | 20 | 194 | 6.4 | 11.3 | 0.00 | 0.00 | 0.00 | 62 | 1007.7 |
| 20260505035525 | 20 | 236 | 4.8 | 16.1 | 0.00 | 0.00 | 0.00 | 63 | 1007.8 |
| 20260505035024 | 20 | 193 | 4.8 | 17.7 | 0.00 | 0.00 | 0.00 | 62 | 1007.8 |
| 20260505034537 | 20 | 181 | 6.4 | 19.3 | 0.00 | 0.00 | 0.00 | 61 | 1007.9 |
| 20260505034023 | 20 | 182 | 6.4 | 19.3 | 0.00 | 0.00 | 0.00 | 62 | 1007.9 |
| 20260505033523 | 20 | 186 | 3.2 | 12.9 | 0.00 | 0.00 | 0.00 | 64 | 1007.7 |
| 20260505033100 | 20 | 181 | 4.8 | 12.9 | 0.00 | 0.00 | 0.00 | 64 | 1007.8 |
| 20260505032525 | 20 | 184 | 3.2 | 11.3 | 0.00 | 0.00 | 0.00 | 64 | 1007.7 |
| 20260505032022 | 20 | 176 | 3.2 | 11.3 | 0.00 | 0.00 | 0.00 | 65 | 1007.7 |
| 20260505031539 | 20 | 214 | 3.2 | 11.3 | 0.00 | 0.00 | 0.00 | 64 | 1007.6 |
| 20260505031022 | 20 | 203 | 3.2 | 11.3 | 0.00 | 0.00 | 0.00 | 63 | 1007.7 |
| 20260505030522 | 20 | 189 | 3.2 | 14.5 | 0.00 | 0.00 | 0.00 | 63 | 1007.7 |
| 20260505030037 | 20 | 181 | 4.8 | 14.5 | 0.00 | 0.00 | 0.00 | 63 | 1007.6 |
| 20260505025526 | 20 | 203 | 4.8 | 14.5 | 0.00 | 0.00 | 0.00 | 63 | 1007.5 |
| 20260505025023 | 20 | 222 | 3.2 | 14.5 | 0.00 | 0.00 | 0.00 | 63 | 1007.4 |
| 20260505024536 | 20 | 195 | 4.8 | 11.3 | 0.00 | 0.00 | 0.00 | 64 | 1007.4 |
| 20260505024023 | 20 | 205 | 4.8 | 11.3 | 0.00 | 0.00 | 0.00 | 63 | 1007.2 |
| 20260505023526 | 20 | 180 | 3.2 | 12.9 | 0.00 | 0.00 | 0.00 | 65 | 1007.1 |
| 20260505023049 | 20 | 189 | 3.2 | 12.9 | 0.00 | 0.00 | 0.00 | 66 | 1007.1 |
| 20260505022527 | 19 | 182 | 4.8 | 12.9 | 0.00 | 0.00 | 0.00 | 64 | 1007.2 |
| 20260505022023 | 19 | 208 | 3.2 | 12.9 | 0.00 | 0.00 | 0.00 | 66 | 1007.0 |
| 20260505021537 | 19 | 196 | 3.2 | 12.9 | 0.00 | 0.00 | 0.00 | 66 | 1007.0 |
| 20260505021027 | 19 | 184 | 1.6 | 8.0 | 0.00 | 0.00 | 0.00 | 66 | 1006.9 |
| 20260505020525 | 19 | 190 | 3.2 | 8.0 | 0.00 | 0.00 | 0.00 | 66 | 1006.8 |
| 20260505020041 | 19 | 188 | 3.2 | 8.0 | 0.00 | 0.00 | 0.00 | 66 | 1006.6 |
| 20260505015523 | 19 | 203 | 1.6 | 6.4 | 0.00 | 0.00 | 0.00 | 67 | 1006.6 |
| 20260505015026 | 19 | 194 | 0.0 | 6.4 | 0.00 | 0.00 | 0.00 | 67 | 1006.5 |
| 20260505014538 | 19 | 215 | 1.6 | 3.2 | 0.00 | 0.00 | 0.00 | 67 | 1006.5 |
| 20260505014023 | 19 | 0 | 0.0 | 3.2 | 0.00 | 0.00 | 0.00 | 67 | 1006.4 |
| 20260505013525 | 19 | 199 | 0.0 | 3.2 | 0.00 | 0.00 | 0.00 | 66 | 1006.4 |
| 20260505013038 | 19 | 205 | 1.6 | 6.4 | 0.00 | 0.00 | 0.00 | 65 | 1006.4 |
| 20260505012522 | 20 | 188 | 1.6 | 6.4 | 0.00 | 0.00 | 0.00 | 65 | 1006.5 |
| 20260505012023 | 20 | 194 | 0.0 | 4.8 | 0.00 | 0.00 | 0.00 | 65 | 1006.4 |
| 20260505011540 | 20 | 193 | 1.6 | 4.8 | 0.00 | 0.00 | 0.00 | 65 | 1006.3 |
| 20260505011023 | 20 | 191 | 0.0 | 4.8 | 0.00 | 0.00 | 0.00 | 65 | 1006.3 |
| 20260505010523 | 20 | 0 | 1.6 | 4.8 | 0.00 | 0.00 | 0.00 | 64 | 1006.3 |
| 20260505010042 | 20 | 215 | 1.6 | 6.4 | 0.00 | 0.00 | 0.00 | 63 | 1006.3 |
| 20260505005523 | 20 | 238 | 3.2 | 6.4 | 0.00 | 0.00 | 0.00 | 63 | 1006.3 |
| 20260505005023 | 20 | 0 | 0.0 | 0.0 | 0.00 | 0.00 | 0.00 | 63 | 1006.2 |
| 20260505004545 | 20 | 0 | 0.0 | 4.8 | 0.00 | 0.00 | 0.00 | 63 | 1006.3 |
| 20260505004023 | 20 | 0 | 0.0 | 8.0 | 0.00 | 0.00 | 0.00 | 61 | 1006.4 |
| 20260505003522 | 21 | 192 | 1.6 | 8.0 | 0.00 | 0.00 | 0.00 | 61 | 1006.3 |
| 20260505003039 | 21 | 188 | 1.6 | 4.8 | 0.00 | 0.00 | 0.00 | 62 | 1006.2 |
| 20260505002522 | 21 | 190 | 1.6 | 4.8 | 0.00 | 0.00 | 0.00 | 61 | 1006.2 |
| 20260505002023 | 21 | 204 | 1.6 | 9.7 | 0.00 | 0.00 | 0.00 | 60 | 1006.3 |
| 20260505001539 | 21 | 195 | 1.6 | 9.7 | 0.00 | 0.00 | 0.00 | 59 | 1006.4 |
| 20260505001022 | 21 | 183 | 3.2 | 9.7 | 0.00 | 0.00 | 0.00 | 58 | 1006.3 |
| 20260505000526 | 21 | 174 | 3.2 | 8.0 | 0.00 | 0.00 | 0.00 | 58 | 1006.4 |
| 20260505000037 | 22 | 184 | 3.2 | 9.7 | 0.00 | 0.00 | 0.00 | 57 | 1006.5 |
| 20260504235523 | 22 | 184 | 3.2 | 9.7 | 0.00 | 0.00 | 0.00 | 57 | 1006.4 |
| 20260504235023 | 22 | 178 | 3.2 | 9.7 | 0.00 | 0.00 | 0.00 | 56 | 1006.6 |
| 20260504234558 | 22 | 206 | 3.2 | 14.5 | 0.00 | 0.00 | 0.00 | 55 | 1006.5 |
| 20260504234023 | 22 | 174 | 3.2 | 16.1 | 0.00 | 0.00 | 0.00 | 55 | 1006.7 |
| 20260504233523 | 22 | 202 | 6.4 | 16.1 | 0.00 | 0.00 | 0.00 | 53 | 1006.9 |
| 20260504233039 | 22 | 207 | 3.2 | 17.7 | 0.00 | 0.00 | 0.00 | 55 | 1006.9 |
| 20260504232523 | 22 | 173 | 6.4 | 17.7 | 0.00 | 0.00 | 0.00 | 53 | 1007.0 |
| 20260504232022 | 22 | 211 | 4.8 | 14.5 | 0.00 | 0.00 | 0.00 | 53 | 1007.1 |
| 20260504231549 | 23 | 180 | 3.2 | 20.9 | 0.00 | 0.00 | 0.00 | 54 | 1007.2 |
| 20260504231022 | 23 | 252 | 3.2 | 20.9 | 0.00 | 0.00 | 0.00 | 50 | 1007.2 |
| 20260504230524 | 23 | 205 | 4.8 | 17.7 | 0.00 | 0.00 | 0.00 | 50 | 1007.3 |
| 20260504230038 | 23 | 175 | 6.4 | 19.3 | 0.00 | 0.00 | 0.00 | 49 | 1007.3 |
| 20260504225528 | 23 | 234 | 8.0 | 20.9 | 0.00 | 0.00 | 0.00 | 49 | 1007.4 |
| 20260504225024 | 23 | 223 | 4.8 | 27.4 | 0.00 | 0.00 | 0.00 | 52 | 1007.3 |
| 20260504224538 | 23 | 182 | 6.4 | 27.4 | 0.00 | 0.00 | 0.00 | 49 | 1007.3 |
| 20260504224022 | 23 | 165 | 8.0 | 27.4 | 0.00 | 0.00 | 0.00 | 50 | 1007.3 |
| 20260504223524 | 23 | 175 | 8.0 | 35.4 | 0.00 | 0.00 | 0.00 | 51 | 1007.3 |
| 20260504223038 | 23 | 172 | 6.4 | 35.4 | 0.00 | 0.00 | 0.00 | 52 | 1007.3 |
| 20260504222526 | 23 | 170 | 6.4 | 16.1 | 0.00 | 0.00 | 0.00 | 53 | 1007.3 |
| 20260504222022 | 23 | 191 | 6.4 | 16.1 | 0.00 | 0.00 | 0.00 | 57 | 1007.4 |
| 20260504221539 | 23 | 199 | 3.2 | 8.0 | 0.00 | 0.00 | 0.00 | 57 | 1007.3 |
| 20260504221027 | 23 | 197 | 3.2 | 8.0 | 0.00 | 0.00 | 0.00 | 56 | 1007.4 |
| 20260504220523 | 23 | 0 | 1.6 | 4.8 | 0.00 | 0.00 | 0.00 | 59 | 1007.4 |
| 20260504220039 | 23 | 184 | 1.6 | 3.2 | 0.00 | 0.00 | 0.00 | 60 | 1007.3 |
| 20260504215523 | 23 | 0 | 0.0 | 4.8 | 0.00 | 0.00 | 0.00 | 61 | 1007.2 |
| 20260504215023 | 23 | 196 | 1.6 | 4.8 | 0.00 | 0.00 | 0.00 | 58 | 1007.4 |
| 20260504214540 | 23 | 0 | 0.0 | 6.4 | 0.00 | 0.00 | 0.00 | 58 | 1007.6 |
| 20260504214024 | 23 | 175 | 0.0 | 8.0 | 0.00 | 0.00 | 0.00 | 57 | 1007.6 |
| 20260504213526 | 23 | 187 | 1.6 | 9.7 | 0.00 | 0.00 | 0.00 | 54 | 1007.9 |
| 20260504213037 | 23 | 196 | 3.2 | 12.9 | 0.00 | 0.00 | 0.00 | 51 | 1007.8 |
| 20260504212525 | 24 | 181 | 3.2 | 12.9 | 0.00 | 0.00 | 0.00 | 54 | 1007.9 |
| 20260504212022 | 24 | 205 | 4.8 | 11.3 | 0.00 | 0.00 | 0.00 | 51 | 1007.9 |
| 20260504211539 | 24 | 136 | 1.6 | 11.3 | 0.00 | 0.00 | 0.00 | 52 | 1008.0 |
| 20260504211025 | 24 | 150 | 3.2 | 11.3 | 0.00 | 0.00 | 0.00 | 51 | 1008.1 |
| 20260504210525 | 24 | 250 | 3.2 | 11.3 | 0.00 | 0.00 | 0.00 | 51 | 1008.2 |
| 20260504210042 | 24 | 201 | 1.6 | 14.5 | 0.00 | 0.00 | 0.00 | 51 | 1008.2 |
| 20260504205524 | 24 | 223 | 1.6 | 14.5 | 0.00 | 0.00 | 0.00 | 53 | 1008.1 |
| 20260504205022 | 24 | 211 | 1.6 | 17.7 | 0.00 | 0.00 | 0.00 | 51 | 1008.2 |
| 20260504204618 | 23 | 190 | 4.8 | 17.7 | 0.00 | 0.00 | 0.00 | 51 | 1008.1 |
| 20260504204023 | 23 | 226 | 4.8 | 17.7 | 0.00 | 0.00 | 0.00 | 50 | 1008.2 |
| 20260504203524 | 24 | 184 | 6.4 | 17.7 | 0.00 | 0.00 | 0.00 | 50 | 1008.2 |
| 20260504203039 | 24 | 156 | 3.2 | 19.3 | 0.00 | 0.00 | 0.00 | 53 | 1008.3 |
| 20260504202523 | 23 | 185 | 6.4 | 19.3 | 0.00 | 0.00 | 0.00 | 55 | 1008.4 |
| 20260504202024 | 23 | 200 | 3.2 | 14.5 | 0.00 | 0.00 | 0.00 | 57 | 1008.5 |
| 20260504201539 | 23 | 183 | 4.8 | 14.5 | 0.00 | 0.00 | 0.00 | 58 | 1008.6 |
| 20260504201022 | 22 | 198 | 4.8 | 17.7 | 0.00 | 0.00 | 0.00 | 56 | 1008.7 |
| 20260504200524 | 23 | 153 | 6.4 | 17.7 | 0.00 | 0.00 | 0.00 | 55 | 1008.7 |
| 20260504200040 | 23 | 177 | 6.4 | 17.7 | 0.00 | 0.00 | 0.00 | 56 | 1008.8 |
| 20260504195526 | 23 | 187 | 4.8 | 17.7 | 0.00 | 0.00 | 0.00 | 58 | 1008.8 |
| 20260504195023 | 23 | 212 | 6.4 | 14.5 | 0.00 | 0.00 | 0.00 | 55 | 1009.0 |
| 20260504194546 | 23 | 211 | 1.6 | 14.5 | 0.00 | 0.00 | 0.00 | 61 | 1009.0 |
| 20260504194025 | 22 | 212 | 4.8 | 14.5 | 0.00 | 0.00 | 0.00 | 57 | 1009.1 |
| 20260504193522 | 22 | 181 | 3.2 | 16.1 | 0.00 | 0.00 | 0.00 | 58 | 1009.1 |
| 20260504193036 | 22 | 182 | 4.8 | 16.1 | 0.00 | 0.00 | 0.00 | 60 | 1009.3 |
| 20260504192526 | 22 | 178 | 3.2 | 17.7 | 0.00 | 0.00 | 0.00 | 60 | 1009.3 |
| 20260504192023 | 22 | 234 | 8.0 | 17.7 | 0.00 | 0.00 | 0.00 | 57 | 1009.5 |
| 20260504191543 | 21 | 186 | 6.4 | 25.7 | 0.00 | 0.00 | 0.00 | 62 | 1009.6 |
| 20260504191023 | 21 | 184 | 4.8 | 25.7 | 0.00 | 0.00 | 0.00 | 63 | 1009.5 |
| 20260504190523 | 21 | 182 | 3.2 | 16.1 | 0.00 | 0.00 | 0.00 | 63 | 1009.4 |
| 20260504190040 | 21 | 184 | 4.8 | 12.9 | 0.00 | 0.00 | 0.00 | 63 | 1009.6 |
| 20260504185522 | 21 | 165 | 3.2 | 11.3 | 0.00 | 0.00 | 0.00 | 64 | 1009.8 |
| 20260504185024 | 20 | 149 | 3.2 | 9.7 | 0.00 | 0.00 | 0.00 | 68 | 1009.8 |
| 20260504184548 | 20 | 183 | 3.2 | 9.7 | 0.00 | 0.00 | 0.00 | 65 | 1009.8 |
| 20260504184027 | 20 | 200 | 1.6 | 9.7 | 0.00 | 0.00 | 0.00 | 65 | 1009.9 |
| 20260504183526 | 20 | 170 | 1.6 | 12.9 | 0.00 | 0.00 | 0.00 | 66 | 1009.9 |
| 20260504183038 | 20 | 183 | 3.2 | 12.9 | 0.00 | 0.00 | 0.00 | 65 | 1009.9 |
| 20260504182528 | 20 | 182 | 4.8 | 12.9 | 0.00 | 0.00 | 0.00 | 65 | 1009.8 |
| 20260504182026 | 20 | 132 | 4.8 | 19.3 | 0.00 | 0.00 | 0.00 | 64 | 1009.9 |
| 20260504181538 | 20 | 231 | 6.4 | 19.3 | 0.00 | 0.00 | 0.00 | 64 | 1009.9 |
| 20260504181025 | 20 | 182 | 6.4 | 14.5 | 0.00 | 0.00 | 0.00 | 64 | 1009.7 |
| 20260504180523 | 20 | 211 | 3.2 | 9.7 | 0.00 | 0.00 | 0.00 | 64 | 1009.7 |
| 20260504180037 | 20 | 186 | 1.6 | 20.9 | 0.00 | 0.00 | 0.00 | 65 | 1009.7 |
| 20260504175524 | 20 | 175 | 3.2 | 20.9 | 0.00 | 0.00 | 0.00 | 63 | 1009.5 |
| 20260504175027 | 21 | 205 | 6.4 | 17.7 | 0.00 | 0.00 | 0.00 | 61 | 1009.5 |
| 20260504174540 | 21 | 188 | 4.8 | 19.3 | 0.00 | 0.00 | 0.00 | 64 | 1009.4 |
| 20260504174025 | 21 | 150 | 8.0 | 19.3 | 0.00 | 0.00 | 0.00 | 61 | 1009.2 |
| 20260504173529 | 21 | 209 | 6.4 | 19.3 | 0.00 | 0.00 | 0.00 | 62 | 1009.2 |
| 20260504173038 | 21 | 159 | 4.8 | 14.5 | 0.00 | 0.00 | 0.00 | 63 | 1009.1 |
| 20260504172525 | 21 | 279 | 4.8 | 17.7 | 0.00 | 0.00 | 0.00 | 65 | 1009.2 |
| 20260504172025 | 20 | 189 | 8.0 | 17.7 | 0.00 | 0.00 | 0.00 | 63 | 1009.2 |
| 20260504171544 | 20 | 183 | 8.0 | 17.7 | 0.00 | 0.00 | 0.00 | 62 | 1009.3 |
| 20260504171026 | 20 | 185 | 8.0 | 19.3 | 0.00 | 0.00 | 0.00 | 63 | 1009.4 |
| 20260504170526 | 20 | 146 | 4.8 | 19.3 | 0.00 | 0.00 | 0.00 | 65 | 1009.5 |
| 20260504151027 | 17 | 232 | 3.2 | 11.3 | 0.00 | 0.00 | 0.00 | 69 | 1010.3 |
| 20260504150525 | 17 | 225 | 4.8 | 14.5 | 0.00 | 0.00 | 0.00 | 69 | 1010.2 |
| 20260504141029 | 15 | 180 | 1.6 | 9.7 | 0.00 | 0.00 | 0.00 | 74 | 1010.3 |
| 20260504140527 | 15 | 242 | 3.2 | 11.3 | 0.00 | 0.00 | 0.00 | 71 | 1010.3 |
| 20260504130526 | 13 | 216 | 3.2 | 9.7 | 0.00 | 0.00 | 0.00 | 74 | 1010.8 |
| 20260504110526 | 12 | 178 | 3.2 | 11.3 | 0.00 | 0.00 | 0.00 | 70 | 1010.4 |